Time,TemperatureF,DewpointF,PressureIn,WindDirection,WindDirectionDegrees,WindSpeedMPH,WindSpeedGustMPH,Humidity,HourlyPrecipIn,Conditions,Clouds,dailyrainin,SoftwareType,DateUTC
2013-07-26 16:10:00,88.2,74.9,30.00,NW,316,3.6,3.6,65,0.00,,---,0.00,VWS V14.01,2013-07-26 20:10:00,
2013-07-26 16:11:00,88.2,74.9,30.00,NW,316,5.8,5.8,65,0.04,,---,0.04,VWS V14.01,2013-07-26 20:11:00,
2013-07-26 16:15:00,86.5,74.3,30.00,NW,320,4.0,4.0,67,0.08,,---,0.08,VWS V14.01,2013-07-26 20:15:00,
2013-07-26 16:16:00,86.5,74.3,30.00,NW,320,5.8,5.8,67,0.08,,---,0.08,VWS V14.01,2013-07-26 20:16:00,
2013-07-26 16:20:00,86.5,74.7,30.00,NW,315,3.6,3.6,68,0.08,,---,0.08,VWS V14.01,2013-07-26 20:20:00,
2013-07-26 16:21:00,86.5,74.7,30.00,North,10,5.4,5.4,68,0.08,,---,0.08,VWS V14.01,2013-07-26 20:21:00,
2013-07-26 16:25:00,86.7,75.3,30.00,WNW,303,4.0,4.0,69,0.08,,---,0.08,VWS V14.01,2013-07-26 20:25:00,
2013-07-26 16:26:00,86.7,75.3,30.00,WNW,303,4.9,4.9,69,0.08,,---,0.08,VWS V14.01,2013-07-26 20:26:00,
2013-07-26 16:27:00,86.5,74.7,30.00,WNW,303,3.6,4.9,68,0.08,,---,0.08,VWS V14.01,2013-07-26 20:27:00,
2013-07-26 16:30:00,86.5,75.2,30.00,North,4,3.6,3.6,69,0.08,,---,0.08,VWS V14.01,2013-07-26 20:30:00,
2013-07-26 16:31:00,86.5,75.2,30.00,North,4,2.2,3.6,69,0.08,,---,0.08,VWS V14.01,2013-07-26 20:31:00,
2013-07-26 16:32:00,86.5,75.2,30.00,NW,307,2.7,3.6,69,0.08,,---,0.08,VWS V14.01,2013-07-26 20:32:00,
2013-07-26 16:35:00,86.7,75.3,30.00,NW,307,3.1,3.1,69,0.08,,---,0.08,VWS V14.01,2013-07-26 20:35:00,
2013-07-26 16:36:00,86.7,75.3,30.00,NW,307,3.1,3.1,69,0.08,,---,0.08,VWS V14.01,2013-07-26 20:36:00,
2013-07-26 16:37:00,86.7,75.3,30.00,NW,307,3.1,3.1,69,0.08,,---,0.08,VWS V14.01,2013-07-26 20:37:00,
2013-07-26 16:40:00,86.7,75.3,30.00,NW,307,2.2,2.2,69,0.08,,---,0.08,VWS V14.01,2013-07-26 20:40:00,
2013-07-26 16:41:00,86.7,75.3,30.00,NW,307,2.2,2.2,69,0.08,,---,0.08,VWS V14.01,2013-07-26 20:41:00,
2013-07-26 16:42:00,86.2,75.2,30.00,NW,307,2.2,2.2,70,0.08,,---,0.08,VWS V14.01,2013-07-26 20:42:00,
2013-07-26 16:46:00,86.2,75.2,30.00,NNW,331,6.3,6.3,70,0.08,,---,0.08,VWS V14.01,2013-07-26 20:46:00,
2013-07-26 16:47:00,86.2,75.2,30.00,NNW,335,5.4,5.4,70,0.08,,---,0.08,VWS V14.01,2013-07-26 20:47:00,
2013-07-26 16:51:00,82.9,74.6,30.00,NNW,336,4.0,4.0,76,0.08,,---,0.08,VWS V14.01,2013-07-26 20:51:00,
2013-07-26 16:52:00,82.4,74.5,30.00,NNW,336,4.0,4.0,77,0.08,,---,0.08,VWS V14.01,2013-07-26 20:52:00,
2013-07-26 16:56:00,82.4,74.5,30.00,NW,326,3.6,3.6,77,0.08,,---,0.08,VWS V14.01,2013-07-26 20:56:00,
2013-07-26 16:57:00,82.4,74.5,30.00,NW,316,0.0,3.6,77,0.08,,---,0.08,VWS V14.01,2013-07-26 20:57:00,
2013-07-26 16:58:00,82.4,74.5,30.00,NW,316,0.0,0.0,77,0.08,,---,0.08,VWS V14.01,2013-07-26 20:58:00,
2013-07-26 17:01:00,81.3,73.4,30.00,NW,316,0.0,0.0,77,0.08,,---,0.08,VWS V14.01,2013-07-26 21:01:00,
2013-07-26 17:02:00,81.3,73.4,30.00,NW,322,3.1,3.1,77,0.08,,---,0.08,VWS V14.01,2013-07-26 21:02:00,
2013-07-26 17:03:00,81.3,73.4,30.00,NW,322,3.1,3.1,77,0.08,,---,0.08,VWS V14.01,2013-07-26 21:03:00,
2013-07-26 17:04:00,81.3,73.4,30.00,NW,322,3.1,3.1,77,0.08,,---,0.08,VWS V14.01,2013-07-26 21:04:00,
2013-07-26 17:06:00,81.3,73.4,30.00,NW,319,3.6,3.6,77,0.08,,---,0.08,VWS V14.01,2013-07-26 21:06:00,
2013-07-26 17:07:00,81.3,73.4,30.00,NW,319,3.6,3.6,77,0.08,,---,0.08,VWS V14.01,2013-07-26 21:07:00,
2013-07-26 17:08:00,81.3,73.4,30.00,NW,321,3.1,3.1,77,0.08,,---,0.08,VWS V14.01,2013-07-26 21:08:00,
2013-07-26 17:09:00,81.3,73.4,30.00,NW,321,3.1,3.1,77,0.08,,---,0.08,VWS V14.01,2013-07-26 21:09:00,
2013-07-26 17:11:00,81.3,73.4,30.00,NW,321,3.1,3.1,77,0.04,,---,0.08,VWS V14.01,2013-07-26 21:11:00,
2013-07-26 17:12:00,81.3,73.4,30.00,NW,321,3.1,3.1,77,0.04,,---,0.08,VWS V14.01,2013-07-26 21:12:00,
2013-07-26 17:13:00,81.3,73.4,30.00,NW,321,3.1,3.1,77,0.00,,---,0.08,VWS V14.01,2013-07-26 21:13:00,
2013-07-26 17:14:00,81.3,73.4,30.00,NW,321,3.1,3.1,77,0.00,,---,0.08,VWS V14.01,2013-07-26 21:14:00,
2013-07-26 17:16:00,81.3,73.4,30.00,NW,321,2.7,2.7,77,0.00,,---,0.08,VWS V14.01,2013-07-26 21:16:00,
2013-07-26 17:17:00,84.2,75.8,30.00,NW,321,2.7,2.7,76,0.00,,---,0.08,VWS V14.01,2013-07-26 21:17:00,
2013-07-26 17:18:00,84.2,75.8,30.00,NW,321,2.7,2.7,76,0.00,,---,0.08,VWS V14.01,2013-07-26 21:18:00,
2013-07-26 17:19:00,84.2,75.8,30.00,NW,321,0.0,0.0,76,0.00,,---,0.08,VWS V14.01,2013-07-26 21:19:00,
2013-07-26 17:21:00,84.2,75.8,30.00,NW,321,0.0,0.0,76,0.00,,---,0.08,VWS V14.01,2013-07-26 21:21:00,
2013-07-26 17:22:00,85.1,76.7,30.00,NW,321,0.0,0.0,76,0.00,,---,0.08,VWS V14.01,2013-07-26 21:22:00,
2013-07-26 17:23:00,85.1,76.7,30.00,NW,321,0.0,0.0,76,0.00,,---,0.08,VWS V14.01,2013-07-26 21:23:00,
2013-07-26 17:24:00,85.1,76.7,30.00,NW,321,0.0,0.0,76,0.00,,---,0.08,VWS V14.01,2013-07-26 21:24:00,
2013-07-26 17:27:00,85.5,76.6,30.00,NW,321,0.0,0.0,75,0.00,,---,0.08,VWS V14.01,2013-07-26 21:27:00,
2013-07-26 17:28:00,85.5,76.6,30.00,NW,321,0.0,0.0,75,0.00,,---,0.08,VWS V14.01,2013-07-26 21:28:00,
2013-07-26 17:29:00,85.5,76.6,30.00,NW,321,0.0,0.0,75,0.00,,---,0.08,VWS V14.01,2013-07-26 21:29:00,
2013-07-26 17:30:00,85.5,76.6,30.00,NW,321,0.0,0.0,75,0.00,,---,0.08,VWS V14.01,2013-07-26 21:30:00,
2013-07-26 17:32:00,85.5,76.6,30.00,NW,321,0.0,0.0,75,0.00,,---,0.08,VWS V14.01,2013-07-26 21:32:00,
2013-07-26 17:33:00,85.5,76.6,30.00,NW,321,3.1,3.1,75,0.00,,---,0.00,VWS V14.01,2013-07-26 21:33:00,
2013-07-26 17:34:00,85.5,76.6,30.00,NW,321,3.1,3.1,75,0.00,,---,0.08,VWS V14.01,2013-07-26 21:34:00,
2013-07-26 17:35:00,85.5,76.6,30.00,NW,321,3.1,3.1,75,0.00,,---,0.08,VWS V14.01,2013-07-26 21:35:00,
2013-07-26 17:37:00,85.6,77.2,30.00,NW,321,2.7,3.1,76,0.00,,---,0.08,VWS V14.01,2013-07-26 21:37:00,
2013-07-26 17:38:00,85.6,77.2,30.00,NW,321,2.7,2.7,76,0.00,,---,0.08,VWS V14.01,2013-07-26 21:38:00,
2013-07-26 17:39:00,85.6,77.2,30.00,NW,321,2.7,2.7,76,0.00,,---,0.08,VWS V14.01,2013-07-26 21:39:00,
2013-07-26 17:40:00,85.6,77.2,30.00,NW,321,2.7,2.7,76,0.00,,---,0.08,VWS V14.01,2013-07-26 21:40:00,
2013-07-26 17:42:00,85.6,77.2,30.00,NW,321,0.0,2.2,76,0.00,,---,0.08,VWS V14.01,2013-07-26 21:42:00,
2013-07-26 17:43:00,85.6,77.2,30.00,NW,321,0.0,0.0,76,0.00,,---,0.08,VWS V14.01,2013-07-26 21:43:00,
2013-07-26 17:44:00,85.6,77.2,30.00,NW,321,0.0,0.0,76,0.00,,---,0.08,VWS V14.01,2013-07-26 21:44:00,
2013-07-26 17:45:00,86.5,78.1,30.00,NW,321,0.0,0.0,76,0.00,,---,0.08,VWS V14.01,2013-07-26 21:45:00,
2013-07-26 17:47:00,86.5,78.1,30.00,NW,321,0.0,0.0,76,0.00,,---,0.08,VWS V14.01,2013-07-26 21:47:00,
2013-07-26 17:48:00,86.5,78.1,30.00,NW,321,0.0,0.0,76,0.00,,---,0.08,VWS V14.01,2013-07-26 21:48:00,
2013-07-26 17:49:00,86.5,78.1,30.00,NW,321,0.0,0.0,76,0.00,,---,0.08,VWS V14.01,2013-07-26 21:49:00,
2013-07-26 17:50:00,86.5,78.1,30.00,NW,321,0.0,0.0,76,0.00,,---,0.08,VWS V14.01,2013-07-26 21:50:00,
2013-07-26 17:52:00,86.5,78.1,30.00,NW,321,2.2,2.2,76,0.00,,---,0.08,VWS V14.01,2013-07-26 21:52:00,
2013-07-26 17:53:00,86.5,78.1,30.00,NW,321,2.2,2.2,76,0.00,,---,0.08,VWS V14.01,2013-07-26 21:53:00,
2013-07-26 17:54:00,86.5,78.1,30.00,NW,321,2.2,2.2,76,0.00,,---,0.08,VWS V14.01,2013-07-26 21:54:00,
2013-07-26 17:55:00,86.5,78.1,30.00,NW,321,0.0,0.0,76,0.00,,---,0.08,VWS V14.01,2013-07-26 21:55:00,
2013-07-26 17:57:00,86.5,78.1,30.00,NW,321,0.0,0.0,76,0.00,,---,0.08,VWS V14.01,2013-07-26 21:57:00,
2013-07-26 17:58:00,86.5,78.1,30.00,NW,321,0.0,0.0,76,0.00,,---,0.08,VWS V14.01,2013-07-26 21:58:00,
2013-07-26 17:59:00,86.5,78.1,30.00,NNW,346,2.7,2.7,76,0.00,,---,0.08,VWS V14.01,2013-07-26 21:59:00,
2013-07-26 18:00:00,86.5,78.1,30.00,NNW,346,2.7,2.7,76,0.00,,---,0.08,VWS V14.01,2013-07-26 22:00:00,
2013-07-26 18:02:00,86.5,78.1,30.00,NNW,346,2.7,2.7,76,0.00,,---,0.08,VWS V14.01,2013-07-26 22:02:00,
2013-07-26 18:03:00,86.5,78.1,30.00,North,353,2.7,4.0,76,0.00,,---,0.08,VWS V14.01,2013-07-26 22:03:00,
2013-07-26 18:04:00,86.5,78.1,30.00,North,353,2.7,2.7,76,0.00,,---,0.08,VWS V14.01,2013-07-26 22:04:00,
2013-07-26 18:05:00,86.5,78.1,30.00,North,353,2.7,2.7,76,0.00,,---,0.08,VWS V14.01,2013-07-26 22:05:00,
2013-07-26 18:07:00,86.5,78.1,30.00,North,349,0.0,2.7,76,0.00,,---,0.08,VWS V14.01,2013-07-26 22:07:00,
2013-07-26 18:09:00,86.5,78.1,30.00,North,349,0.0,0.0,76,0.00,,---,0.08,VWS V14.01,2013-07-26 22:09:00,
2013-07-26 18:10:00,86.5,78.1,30.00,North,349,0.0,0.0,76,0.00,,---,0.08,VWS V14.01,2013-07-26 22:10:00,
2013-07-26 18:11:00,86.5,78.1,30.00,North,349,0.0,0.0,76,0.00,,---,0.08,VWS V14.01,2013-07-26 22:11:00,
2013-07-26 18:12:00,89.1,77.1,30.00,North,349,0.0,0.0,68,0.00,,---,0.08,VWS V14.01,2013-07-26 22:12:00,
2013-07-26 18:14:00,89.1,77.1,30.00,North,349,4.0,4.0,68,0.00,,---,0.08,VWS V14.01,2013-07-26 22:14:00,
2013-07-26 18:15:00,89.1,77.1,30.00,North,349,4.0,4.0,68,0.00,,---,0.08,VWS V14.01,2013-07-26 22:15:00,
2013-07-26 18:16:00,89.1,77.1,30.00,North,349,4.0,4.0,68,0.00,,---,0.08,VWS V14.01,2013-07-26 22:16:00,
2013-07-26 18:17:00,89.1,77.1,30.00,North,349,4.9,4.9,68,0.00,,---,0.08,VWS V14.01,2013-07-26 22:17:00,
2013-07-26 18:19:00,89.1,77.1,30.00,North,349,4.0,4.0,68,0.00,,---,0.08,VWS V14.01,2013-07-26 22:19:00,
2013-07-26 18:20:00,89.1,77.1,30.00,North,349,2.7,2.7,68,0.00,,---,0.08,VWS V14.01,2013-07-26 22:20:00,
2013-07-26 18:21:00,89.1,77.1,30.00,North,349,2.7,2.7,68,0.00,,---,0.08,VWS V14.01,2013-07-26 22:21:00,
2013-07-26 18:22:00,88.5,75.3,30.00,North,349,2.7,2.7,65,0.00,,---,0.08,VWS V14.01,2013-07-26 22:22:00,
2013-07-26 18:24:00,88.5,75.3,30.00,North,349,2.7,2.7,65,0.00,,---,0.08,VWS V14.01,2013-07-26 22:24:00,
2013-07-26 18:25:00,88.5,75.3,30.00,North,349,0.0,0.0,65,0.00,,---,0.08,VWS V14.01,2013-07-26 22:25:00,
2013-07-26 18:26:00,88.5,75.3,30.00,North,349,0.0,0.0,65,0.00,,---,0.08,VWS V14.01,2013-07-26 22:26:00,
2013-07-26 18:28:00,88.5,75.3,29.97,North,349,2.7,2.7,65,0.00,,---,0.08,VWS V14.01,2013-07-26 22:28:00,
2013-07-26 18:29:00,88.5,75.3,29.97,North,349,2.7,2.7,65,0.00,,---,0.08,VWS V14.01,2013-07-26 22:29:00,
2013-07-26 18:30:00,88.5,75.3,29.97,North,349,3.6,3.6,65,0.00,,---,0.08,VWS V14.01,2013-07-26 22:30:00,
2013-07-26 18:31:00,88.3,73.7,29.97,North,349,3.6,3.6,62,0.00,,---,0.08,VWS V14.01,2013-07-26 22:31:00,
2013-07-26 18:33:00,88.3,73.7,29.97,North,349,3.6,3.6,62,0.00,,---,0.08,VWS V14.01,2013-07-26 22:33:00,
2013-07-26 18:34:00,88.3,73.7,29.97,North,349,3.6,3.6,62,0.00,,---,0.08,VWS V14.01,2013-07-26 22:34:00,
2013-07-26 18:35:00,88.3,73.7,29.97,North,349,0.0,0.0,62,0.00,,---,0.08,VWS V14.01,2013-07-26 22:35:00,
2013-07-26 18:37:00,88.3,74.6,29.97,North,349,0.0,0.0,64,0.00,,---,0.08,VWS V14.01,2013-07-26 22:37:00,
2013-07-26 18:38:00,88.3,74.6,29.97,North,349,0.0,0.0,64,0.00,,---,0.08,VWS V14.01,2013-07-26 22:38:00,
2013-07-26 18:39:00,88.3,74.6,29.97,North,349,0.0,0.0,64,0.00,,---,0.08,VWS V14.01,2013-07-26 22:39:00,
2013-07-26 18:40:00,88.2,74.9,29.97,North,349,0.0,0.0,65,0.00,,---,0.08,VWS V14.01,2013-07-26 22:40:00,
2013-07-26 18:42:00,88.2,74.9,29.97,North,349,0.0,0.0,65,0.00,,---,0.08,VWS V14.01,2013-07-26 22:42:00,
2013-07-26 18:43:00,88.2,74.9,29.97,North,349,0.0,0.0,65,0.00,,---,0.08,VWS V14.01,2013-07-26 22:43:00,
2013-07-26 18:44:00,88.2,74.9,29.97,North,349,3.1,3.1,65,0.00,,---,0.08,VWS V14.01,2013-07-26 22:44:00,
2013-07-26 18:45:00,88.2,74.9,29.97,North,349,3.1,3.1,65,0.00,,---,0.08,VWS V14.01,2013-07-26 22:45:00,
2013-07-26 18:47:00,88.2,74.9,29.97,NNW,348,2.2,2.2,65,0.00,,---,0.08,VWS V14.01,2013-07-26 22:47:00,
2013-07-26 18:48:00,88.2,74.9,29.97,NNW,348,0.0,0.0,65,0.00,,---,0.08,VWS V14.01,2013-07-26 22:48:00,
2013-07-26 18:49:00,86.9,75.5,30.00,NNW,348,0.0,0.0,69,0.00,,---,0.08,VWS V14.01,2013-07-26 22:49:00,
2013-07-26 18:50:00,86.9,75.5,30.00,SW,218,4.0,4.0,69,0.00,,---,0.08,VWS V14.01,2013-07-26 22:50:00,
2013-07-26 18:52:00,86.9,75.5,30.00,SW,218,4.0,4.0,69,0.00,,---,0.08,VWS V14.01,2013-07-26 22:52:00,
2013-07-26 18:53:00,86.9,75.5,30.00,SW,218,4.0,4.0,69,0.00,,---,0.08,VWS V14.01,2013-07-26 22:53:00,
2013-07-26 18:54:00,86.2,75.2,30.00,SW,221,4.0,4.0,70,0.00,,---,0.08,VWS V14.01,2013-07-26 22:54:00,
2013-07-26 18:55:00,86.2,75.2,30.00,SW,221,4.0,4.0,70,0.00,,---,0.08,VWS V14.01,2013-07-26 22:55:00,
2013-07-26 18:57:00,86.2,75.2,30.00,SW,221,4.0,4.0,70,0.00,,---,0.08,VWS V14.01,2013-07-26 22:57:00,
2013-07-26 18:58:00,85.6,75.2,30.00,SW,221,4.0,4.0,71,0.00,,---,0.08,VWS V14.01,2013-07-26 22:58:00,
2013-07-26 18:59:00,85.6,75.2,30.00,SW,221,0.0,4.0,71,0.00,,---,0.08,VWS V14.01,2013-07-26 22:59:00,
2013-07-26 19:00:00,85.6,75.2,30.00,SW,221,0.0,0.0,71,0.00,,---,0.08,VWS V14.01,2013-07-26 23:00:00,
2013-07-26 19:03:00,85.6,76.0,30.00,SW,221,0.0,0.0,73,0.00,,---,0.08,VWS V14.01,2013-07-26 23:03:00,
2013-07-26 19:04:00,85.6,76.0,30.00,SW,221,2.7,2.7,73,0.00,,---,0.08,VWS V14.01,2013-07-26 23:04:00,
2013-07-26 19:05:00,85.6,76.0,30.00,SW,221,3.1,3.1,73,0.00,,---,0.08,VWS V14.01,2013-07-26 23:05:00,
2013-07-26 19:08:00,85.3,76.1,30.00,SW,221,3.1,3.1,74,0.00,,---,0.08,VWS V14.01,2013-07-26 23:08:00,
2013-07-26 19:09:00,85.3,76.1,30.00,SW,218,3.1,3.1,74,0.00,,---,0.08,VWS V14.01,2013-07-26 23:09:00,
2013-07-26 19:10:00,85.3,76.1,30.00,SSW,204,3.1,3.1,74,0.00,,---,0.08,VWS V14.01,2013-07-26 23:10:00,
2013-07-26 19:13:00,85.3,76.1,30.00,SSW,207,0.0,0.0,74,0.00,,---,0.08,VWS V14.01,2013-07-26 23:13:00,
2013-07-26 19:15:00,85.3,76.1,30.00,SSW,207,0.0,0.0,74,0.00,,---,0.08,VWS V14.01,2013-07-26 23:15:00,
2013-07-26 19:16:00,85.3,76.1,30.00,SSW,207,0.0,0.0,74,0.00,,---,0.08,VWS V14.01,2013-07-26 23:16:00,
2013-07-26 19:18:00,85.3,76.1,30.00,SSW,207,0.0,0.0,74,0.00,,---,0.08,VWS V14.01,2013-07-26 23:18:00,
2013-07-26 19:19:00,85.3,76.1,30.00,SSW,213,3.6,3.6,74,0.00,,---,0.08,VWS V14.01,2013-07-26 23:19:00,
2013-07-26 19:20:00,85.3,76.1,30.00,SSW,194,6.3,6.3,74,0.00,,---,0.08,VWS V14.01,2013-07-26 23:20:00,
2013-07-26 19:21:00,85.3,76.1,30.00,SSW,194,6.3,6.3,74,0.00,,---,0.08,VWS V14.01,2013-07-26 23:21:00,
2013-07-26 19:23:00,85.3,76.1,30.00,South,185,3.6,3.6,74,0.00,,---,0.08,VWS V14.01,2013-07-26 23:23:00,
2013-07-26 19:24:00,85.3,76.1,30.00,SSW,212,5.4,5.4,74,0.00,,---,0.08,VWS V14.01,2013-07-26 23:24:00,
2013-07-26 19:25:00,84.2,74.6,30.00,SSW,212,5.4,5.4,73,0.00,,---,0.08,VWS V14.01,2013-07-26 23:25:00,
2013-07-26 19:26:00,84.2,74.6,30.00,SSW,212,5.4,5.4,73,0.00,,---,0.08,VWS V14.01,2013-07-26 23:26:00,
2013-07-26 19:28:00,84.2,74.6,30.00,SW,222,2.2,2.2,73,0.00,,---,0.08,VWS V14.01,2013-07-26 23:28:00,
2013-07-26 19:29:00,84.2,74.6,30.00,SW,222,2.2,2.2,73,0.00,,---,0.08,VWS V14.01,2013-07-26 23:29:00,
2013-07-26 19:30:00,83.8,74.7,30.00,SSW,206,2.7,2.7,74,0.00,,---,0.08,VWS V14.01,2013-07-26 23:30:00,
2013-07-26 19:31:00,83.8,74.7,30.00,SSW,206,2.7,2.7,74,0.00,,---,0.08,VWS V14.01,2013-07-26 23:31:00,
2013-07-26 19:33:00,83.8,74.7,30.00,SSW,211,3.6,3.6,74,0.00,,---,0.08,VWS V14.01,2013-07-26 23:33:00,
2013-07-26 19:34:00,83.7,74.5,30.00,SW,215,3.1,3.1,74,0.00,,---,0.08,VWS V14.01,2013-07-26 23:34:00,
2013-07-26 19:36:00,83.7,74.5,30.00,SW,215,0.0,3.1,74,0.00,,---,0.08,VWS V14.01,2013-07-26 23:36:00,
2013-07-26 19:37:00,83.7,74.5,30.00,SW,215,0.0,0.0,74,0.00,,---,0.08,VWS V14.01,2013-07-26 23:37:00,
2013-07-26 19:38:00,83.7,74.5,30.00,SW,215,0.0,0.0,74,0.00,,---,0.08,VWS V14.01,2013-07-26 23:38:00,
2013-07-26 19:39:00,83.7,74.5,30.00,SW,215,0.0,0.0,74,0.00,,---,0.08,VWS V14.01,2013-07-26 23:39:00,
2013-07-26 19:41:00,83.7,74.5,30.00,SW,223,2.2,2.2,74,0.00,,---,0.08,VWS V14.01,2013-07-26 23:41:00,
2013-07-26 19:42:00,83.7,74.5,30.00,SW,223,2.2,2.2,74,0.00,,---,0.08,VWS V14.01,2013-07-26 23:42:00,
2013-07-26 19:43:00,83.7,74.5,30.00,SW,223,2.2,2.2,74,0.00,,---,0.08,VWS V14.01,2013-07-26 23:43:00,
2013-07-26 19:44:00,83.7,74.5,30.00,SW,223,2.2,2.2,74,0.00,,---,0.08,VWS V14.01,2013-07-26 23:44:00,
2013-07-26 19:47:00,83.7,74.5,30.00,SW,223,2.2,2.2,74,0.00,,---,0.08,VWS V14.01,2013-07-26 23:47:00,
2013-07-26 19:49:00,83.7,74.5,30.00,SW,223,2.2,2.2,74,0.00,,---,0.08,VWS V14.01,2013-07-26 23:49:00,
2013-07-26 19:50:00,83.7,74.5,30.00,SW,223,2.2,2.2,74,0.00,,---,0.08,VWS V14.01,2013-07-26 23:50:00,
2013-07-26 19:52:00,83.7,74.5,30.00,SW,223,2.2,2.2,74,0.00,,---,0.08,VWS V14.01,2013-07-26 23:52:00,
2013-07-26 19:54:00,83.7,74.5,30.00,SW,223,2.2,2.2,74,0.00,,---,0.00,VWS V14.01,2013-07-26 23:54:00,
2013-07-26 19:55:00,83.7,74.5,30.00,SW,223,2.2,2.2,74,0.00,,---,0.00,VWS V14.01,2013-07-26 23:55:00,
2013-07-26 19:57:00,83.7,74.5,30.03,SW,223,2.2,2.2,74,0.00,,---,0.08,VWS V14.01,2013-07-26 23:57:00,
2013-07-26 19:59:00,83.7,74.5,30.03,SSW,213,0.0,2.2,74,0.00,,---,0.08,VWS V14.01,2013-07-26 23:59:00,
2013-07-26 20:00:00,83.7,74.5,30.03,SSW,213,0.0,0.0,74,0.00,,---,0.08,VWS V14.01,2013-07-27 00:00:00,
2013-07-26 20:02:00,83.7,74.5,30.03,SSW,213,0.0,0.0,74,0.00,,---,0.08,VWS V14.01,2013-07-27 00:02:00,
2013-07-26 20:03:00,83.7,74.5,30.03,SSW,213,0.0,0.0,74,0.00,,---,0.08,VWS V14.01,2013-07-27 00:03:00,
2013-07-26 20:04:00,83.7,74.5,30.03,SSW,213,0.0,0.0,74,0.00,,---,0.08,VWS V14.01,2013-07-27 00:04:00,
2013-07-26 20:05:00,83.7,74.5,30.03,SSW,213,0.0,0.0,74,0.00,,---,0.08,VWS V14.01,2013-07-27 00:05:00,
2013-07-26 20:07:00,83.7,74.5,30.00,SSW,213,0.0,0.0,74,0.00,,---,0.08,VWS V14.01,2013-07-27 00:07:00,
2013-07-26 20:08:00,83.7,74.5,30.00,SSW,213,0.0,0.0,74,0.00,,---,0.08,VWS V14.01,2013-07-27 00:08:00,
2013-07-26 20:09:00,83.7,74.5,30.00,SSW,213,0.0,0.0,74,0.00,,---,0.08,VWS V14.01,2013-07-27 00:09:00,
2013-07-26 20:10:00,83.7,74.5,30.00,SSW,213,0.0,0.0,74,0.00,,---,0.08,VWS V14.01,2013-07-27 00:10:00,
2013-07-26 20:12:00,83.7,74.5,30.00,SSW,213,0.0,0.0,74,0.00,,---,0.08,VWS V14.01,2013-07-27 00:12:00,
2013-07-26 20:13:00,83.7,74.5,30.00,SSW,213,0.0,0.0,74,0.00,,---,0.08,VWS V14.01,2013-07-27 00:13:00,
2013-07-26 20:14:00,83.7,74.5,30.00,SSW,213,0.0,0.0,74,0.00,,---,0.08,VWS V14.01,2013-07-27 00:14:00,
2013-07-26 20:15:00,83.7,74.5,30.00,SSW,213,0.0,0.0,74,0.00,,---,0.08,VWS V14.01,2013-07-27 00:15:00,
2013-07-26 20:17:00,83.7,74.5,30.00,SSW,213,0.0,0.0,74,0.00,,---,0.08,VWS V14.01,2013-07-27 00:17:00,
2013-07-26 20:18:00,83.7,74.5,30.00,SSW,213,0.0,0.0,74,0.00,,---,0.08,VWS V14.01,2013-07-27 00:18:00,
2013-07-26 20:19:00,83.7,74.5,30.00,SSW,213,0.0,0.0,74,0.00,,---,0.08,VWS V14.01,2013-07-27 00:19:00,
2013-07-26 20:21:00,83.7,74.5,30.00,SSW,207,2.7,2.7,74,0.00,,---,0.08,VWS V14.01,2013-07-27 00:21:00,
2013-07-26 20:22:00,83.7,74.5,30.00,SSW,207,2.7,2.7,74,0.00,,---,0.08,VWS V14.01,2013-07-27 00:22:00,
2013-07-26 20:23:00,83.7,74.5,30.00,SSW,207,2.7,2.7,74,0.00,,---,0.08,VWS V14.01,2013-07-27 00:23:00,
2013-07-26 20:25:00,83.7,74.5,30.00,SSW,207,2.7,2.7,74,0.00,,---,0.08,VWS V14.01,2013-07-27 00:25:00,
2013-07-26 20:26:00,83.7,74.5,30.03,SSW,207,2.7,2.7,74,0.00,,---,0.08,VWS V14.01,2013-07-27 00:26:00,
2013-07-26 20:27:00,83.7,74.5,30.03,SSW,207,2.7,2.7,74,0.00,,---,0.08,VWS V14.01,2013-07-27 00:27:00,
2013-07-26 20:28:00,83.7,74.5,30.03,SSW,207,2.7,2.7,74,0.00,,---,0.08,VWS V14.01,2013-07-27 00:28:00,
2013-07-26 20:30:00,83.7,74.5,30.03,SSW,207,2.7,2.7,74,0.00,,---,0.08,VWS V14.01,2013-07-27 00:30:00,
2013-07-26 20:32:00,83.7,74.5,30.03,SSW,207,2.7,2.7,74,0.00,,---,0.08,VWS V14.01,2013-07-27 00:32:00,
2013-07-26 20:33:00,83.7,74.5,30.03,SSW,207,2.7,2.7,74,0.00,,---,0.08,VWS V14.01,2013-07-27 00:33:00,
2013-07-26 20:36:00,83.7,74.5,30.03,SSW,207,2.7,2.7,74,0.00,,---,0.08,VWS V14.01,2013-07-27 00:36:00,
2013-07-26 20:37:00,83.7,74.5,30.03,SSW,207,2.7,2.7,74,0.00,,---,0.08,VWS V14.01,2013-07-27 00:37:00,
2013-07-26 20:38:00,82.0,74.1,30.03,SSW,207,2.7,2.7,77,0.00,,---,0.08,VWS V14.01,2013-07-27 00:38:00,
2013-07-26 20:41:00,82.0,74.1,30.03,SSW,207,2.7,2.7,77,0.00,,---,0.08,VWS V14.01,2013-07-27 00:41:00,
2013-07-26 20:42:00,82.0,74.1,30.03,SSW,207,2.7,2.7,77,0.00,,---,0.08,VWS V14.01,2013-07-27 00:42:00,
2013-07-26 20:43:00,82.0,74.1,30.03,SSW,207,2.7,2.7,77,0.31,,---,0.39,VWS V14.01,2013-07-27 00:43:00,
2013-07-26 20:46:00,82.0,74.1,30.03,SSW,207,2.7,2.7,77,0.31,,---,0.39,VWS V14.01,2013-07-27 00:46:00,
2013-07-26 20:47:00,81.9,73.9,30.03,SSW,207,2.7,2.7,77,0.31,,---,0.39,VWS V14.01,2013-07-27 00:47:00,
2013-07-26 20:48:00,81.9,73.9,30.03,SSW,207,2.7,2.7,77,0.31,,---,0.39,VWS V14.01,2013-07-27 00:48:00,
2013-07-26 20:51:00,81.9,74.3,30.03,SSW,207,2.7,2.7,78,0.31,,---,0.39,VWS V14.01,2013-07-27 00:51:00,
2013-07-26 20:52:00,81.9,74.3,30.03,SSW,207,2.7,2.7,78,0.31,,---,0.39,VWS V14.01,2013-07-27 00:52:00,
2013-07-26 20:53:00,81.9,74.3,30.03,SSW,207,2.7,2.7,78,0.31,,---,0.39,VWS V14.01,2013-07-27 00:53:00,
2013-07-26 20:54:00,81.9,74.3,30.03,SSW,207,2.7,2.7,78,0.31,,---,0.39,VWS V14.01,2013-07-27 00:54:00,
2013-07-26 20:57:00,81.9,74.3,30.03,SSW,207,2.7,2.7,78,0.31,,---,0.39,VWS V14.01,2013-07-27 00:57:00,
2013-07-26 20:58:00,81.9,74.3,30.03,SSW,207,2.7,2.7,78,0.31,,---,0.39,VWS V14.01,2013-07-27 00:58:00,
2013-07-26 20:59:00,81.9,74.3,30.03,SSW,207,2.7,2.7,78,0.31,,---,0.39,VWS V14.01,2013-07-27 00:59:00,
2013-07-26 21:02:00,81.9,74.3,30.03,SSW,207,2.7,2.7,78,0.31,,---,0.39,VWS V14.01,2013-07-27 01:02:00,
2013-07-26 21:03:00,81.9,74.3,30.03,SSW,207,2.7,2.7,78,0.31,,---,0.39,VWS V14.01,2013-07-27 01:03:00,
2013-07-26 21:04:00,81.9,74.3,30.03,SSW,207,2.7,2.7,78,0.31,,---,0.39,VWS V14.01,2013-07-27 01:04:00,
2013-07-26 21:07:00,81.7,74.2,30.03,SSW,207,2.7,2.7,78,0.31,,---,0.39,VWS V14.01,2013-07-27 01:07:00,
2013-07-26 21:08:00,81.7,74.2,30.03,SSW,207,2.7,2.7,78,0.31,,---,0.39,VWS V14.01,2013-07-27 01:08:00,
2013-07-26 21:09:00,81.7,74.2,30.03,SSW,207,2.7,2.7,78,0.31,,---,0.39,VWS V14.01,2013-07-27 01:09:00,
2013-07-26 21:12:00,81.7,74.2,30.03,SSW,207,2.7,2.7,78,0.31,,---,0.39,VWS V14.01,2013-07-27 01:12:00,
2013-07-26 21:13:00,81.7,74.2,30.03,SSW,207,2.7,2.7,78,0.31,,---,0.39,VWS V14.01,2013-07-27 01:13:00,
2013-07-26 21:14:00,81.7,74.2,30.03,SSW,207,2.7,2.7,78,0.31,,---,0.39,VWS V14.01,2013-07-27 01:14:00,
2013-07-26 21:17:00,81.7,74.5,30.03,SSW,207,2.7,2.7,79,0.31,,---,0.39,VWS V14.01,2013-07-27 01:17:00,
2013-07-26 21:18:00,81.7,74.5,30.03,SSW,207,2.7,2.7,79,0.31,,---,0.39,VWS V14.01,2013-07-27 01:18:00,
2013-07-26 21:19:00,81.7,74.5,30.03,SSW,207,2.7,2.7,79,0.31,,---,0.39,VWS V14.01,2013-07-27 01:19:00,
2013-07-26 21:22:00,81.7,74.5,30.03,SSW,207,2.7,2.7,79,0.31,,---,0.39,VWS V14.01,2013-07-27 01:22:00,
2013-07-26 21:23:00,81.5,74.4,30.03,SSW,207,2.7,2.7,79,0.31,,---,0.39,VWS V14.01,2013-07-27 01:23:00,
2013-07-26 21:24:00,81.5,74.4,30.03,SSW,207,2.7,2.7,79,0.31,,---,0.39,VWS V14.01,2013-07-27 01:24:00,
2013-07-26 21:25:00,81.5,74.4,30.03,SSW,207,2.7,2.7,79,0.31,,---,0.39,VWS V14.01,2013-07-27 01:25:00,
2013-07-26 21:28:00,81.5,74.4,30.03,SSW,207,2.7,2.7,79,0.31,,---,0.39,VWS V14.01,2013-07-27 01:28:00,
2013-07-26 21:29:00,81.5,74.4,30.03,SSW,207,2.7,2.7,79,0.31,,---,0.39,VWS V14.01,2013-07-27 01:29:00,
2013-07-26 21:30:00,81.5,74.4,30.03,SSW,207,2.7,2.7,79,0.31,,---,0.39,VWS V14.01,2013-07-27 01:30:00,
2013-07-26 21:33:00,81.3,74.2,30.03,SSW,207,2.7,2.7,79,0.31,,---,0.39,VWS V14.01,2013-07-27 01:33:00,
2013-07-26 21:34:00,81.3,74.2,30.03,SSW,207,2.7,2.7,79,0.31,,---,0.39,VWS V14.01,2013-07-27 01:34:00,
2013-07-26 21:35:00,81.3,74.2,30.03,SSW,207,2.7,2.7,79,0.31,,---,0.39,VWS V14.01,2013-07-27 01:35:00,
2013-07-26 21:38:00,81.3,74.2,30.03,SSW,207,2.7,2.7,79,0.31,,---,0.39,VWS V14.01,2013-07-27 01:38:00,
2013-07-26 21:39:00,81.3,74.2,30.03,SSW,207,2.7,2.7,79,0.31,,---,0.39,VWS V14.01,2013-07-27 01:39:00,
2013-07-26 21:40:00,81.3,74.2,30.03,SSW,207,2.7,2.7,79,0.31,,---,0.39,VWS V14.01,2013-07-27 01:40:00,
2013-07-26 21:43:00,81.1,74.4,30.03,SSW,207,2.7,2.7,80,0.00,,---,0.39,VWS V14.01,2013-07-27 01:43:00,
2013-07-26 21:44:00,81.1,74.4,30.03,SSW,207,2.7,2.7,80,0.00,,---,0.39,VWS V14.01,2013-07-27 01:44:00,
2013-07-26 21:45:00,81.1,74.4,30.03,SSW,207,2.7,2.7,80,0.00,,---,0.39,VWS V14.01,2013-07-27 01:45:00,
2013-07-26 21:49:00,81.1,74.4,30.03,SSW,207,2.7,2.7,80,0.00,,---,0.39,VWS V14.01,2013-07-27 01:49:00,
2013-07-26 21:50:00,81.1,74.4,30.03,SSW,207,2.7,2.7,80,0.00,,---,0.39,VWS V14.01,2013-07-27 01:50:00,
2013-07-26 21:54:00,81.1,74.4,30.03,SSW,207,2.7,2.7,80,0.00,,---,0.39,VWS V14.01,2013-07-27 01:54:00,
2013-07-26 21:55:00,81.1,74.4,30.03,SSW,207,2.7,2.7,80,0.00,,---,0.00,VWS V14.01,2013-07-27 01:55:00,
2013-07-26 21:59:00,81.1,74.8,30.03,SSW,207,2.7,2.7,81,0.00,,---,0.39,VWS V14.01,2013-07-27 01:59:00,
2013-07-26 22:00:00,81.1,74.8,30.03,SSW,207,2.7,2.7,81,0.00,,---,0.39,VWS V14.01,2013-07-27 02:00:00,
2013-07-26 22:04:00,81.1,74.8,30.03,SSW,207,2.7,2.7,81,0.00,,---,0.39,VWS V14.01,2013-07-27 02:04:00,
2013-07-26 22:05:00,81.1,74.8,30.03,SSW,207,2.7,2.7,81,0.00,,---,0.00,VWS V14.01,2013-07-27 02:05:00,
2013-07-26 22:09:00,81.0,74.6,30.03,SSW,207,2.7,2.7,81,0.00,,---,0.39,VWS V14.01,2013-07-27 02:09:00,
2013-07-26 22:10:00,81.0,74.6,30.03,SSW,207,2.7,2.7,81,0.00,,---,0.39,VWS V14.01,2013-07-27 02:10:00,
2013-07-26 22:11:00,81.0,74.6,30.03,SSW,207,2.7,2.7,81,0.00,,---,0.39,VWS V14.01,2013-07-27 02:11:00,
2013-07-26 22:14:00,81.0,74.6,30.03,SSW,207,2.7,2.7,81,0.00,,---,0.39,VWS V14.01,2013-07-27 02:14:00,
2013-07-26 22:15:00,81.0,74.6,30.03,SSW,207,2.7,2.7,81,0.00,,---,0.39,VWS V14.01,2013-07-27 02:15:00,
2013-07-26 22:17:00,81.0,74.6,30.03,SSW,207,2.7,2.7,81,0.00,,---,0.39,VWS V14.01,2013-07-27 02:17:00,
2013-07-26 22:19:00,81.0,74.6,30.03,SSW,207,2.7,2.7,81,0.00,,---,0.39,VWS V14.01,2013-07-27 02:19:00,
2013-07-26 22:20:00,81.0,74.6,30.03,SSW,207,2.7,2.7,81,0.00,,---,0.39,VWS V14.01,2013-07-27 02:20:00,
2013-07-26 22:22:00,81.0,74.6,30.03,SSW,207,2.7,2.7,81,0.00,,---,0.39,VWS V14.01,2013-07-27 02:22:00,
2013-07-26 22:24:00,81.0,74.6,30.03,SSW,207,2.7,2.7,81,0.00,,---,0.39,VWS V14.01,2013-07-27 02:24:00,
2013-07-26 22:25:00,81.0,74.6,30.03,SSW,207,2.7,2.7,81,0.00,,---,0.39,VWS V14.01,2013-07-27 02:25:00,
2013-07-26 22:27:00,81.0,74.6,30.03,SSW,207,2.7,2.7,81,0.00,,---,0.39,VWS V14.01,2013-07-27 02:27:00,
2013-07-26 22:29:00,81.0,74.6,30.03,SSW,207,2.7,2.7,81,0.00,,---,0.39,VWS V14.01,2013-07-27 02:29:00,
2013-07-26 22:30:00,81.0,74.6,30.06,SSW,207,2.7,2.7,81,0.00,,---,0.39,VWS V14.01,2013-07-27 02:30:00,
2013-07-26 22:31:00,81.0,74.6,30.06,SSW,207,2.7,2.7,81,0.00,,---,0.39,VWS V14.01,2013-07-27 02:31:00,
2013-07-26 22:33:00,81.0,74.6,30.06,SSW,207,2.7,2.7,81,0.00,,---,0.39,VWS V14.01,2013-07-27 02:33:00,
2013-07-26 22:34:00,81.0,74.6,30.06,SSW,207,2.7,2.7,81,0.00,,---,0.39,VWS V14.01,2013-07-27 02:34:00,
2013-07-26 22:35:00,81.0,74.6,30.06,SSW,207,2.7,2.7,81,0.00,,---,0.39,VWS V14.01,2013-07-27 02:35:00,
2013-07-26 22:36:00,81.0,74.6,30.06,SSW,207,2.7,2.7,81,0.00,,---,0.39,VWS V14.01,2013-07-27 02:36:00,
2013-07-26 22:38:00,81.0,74.6,30.06,SSW,207,2.7,2.7,81,0.00,,---,0.39,VWS V14.01,2013-07-27 02:38:00,
2013-07-26 22:39:00,81.0,74.6,30.06,SSW,207,2.7,2.7,81,0.00,,---,0.39,VWS V14.01,2013-07-27 02:39:00,
2013-07-26 22:40:00,81.0,74.6,30.06,SSW,207,2.7,2.7,81,0.00,,---,0.39,VWS V14.01,2013-07-27 02:40:00,
2013-07-26 22:41:00,81.0,74.6,30.06,SSW,207,2.7,2.7,81,0.00,,---,0.39,VWS V14.01,2013-07-27 02:41:00,
2013-07-26 22:43:00,81.0,74.6,30.06,SSW,207,2.7,2.7,81,0.00,,---,0.39,VWS V14.01,2013-07-27 02:43:00,
2013-07-26 22:45:00,81.0,74.6,30.06,SSW,207,2.7,2.7,81,0.00,,---,0.39,VWS V14.01,2013-07-27 02:45:00,
2013-07-26 22:46:00,81.0,74.6,30.06,SSW,207,2.7,2.7,81,0.00,,---,0.39,VWS V14.01,2013-07-27 02:46:00,
2013-07-26 22:48:00,81.0,74.6,30.06,SSW,207,2.7,2.7,81,0.00,,---,0.39,VWS V14.01,2013-07-27 02:48:00,
2013-07-26 22:50:00,81.0,74.6,30.06,SSW,207,2.7,2.7,81,0.00,,---,0.39,VWS V14.01,2013-07-27 02:50:00,
2013-07-26 22:51:00,81.0,74.6,30.06,SSW,207,2.7,2.7,81,0.00,,---,0.39,VWS V14.01,2013-07-27 02:51:00,
2013-07-26 22:52:00,81.0,74.6,30.06,SSW,207,2.7,2.7,81,0.00,,---,0.39,VWS V14.01,2013-07-27 02:52:00,
2013-07-26 22:53:00,81.0,74.6,30.06,SSW,207,2.7,2.7,81,0.00,,---,0.39,VWS V14.01,2013-07-27 02:53:00,
2013-07-26 22:55:00,81.0,74.6,30.06,SSW,207,2.7,2.7,81,0.00,,---,0.39,VWS V14.01,2013-07-27 02:55:00,
2013-07-26 22:56:00,81.0,74.6,30.06,SSW,207,2.7,2.7,81,0.00,,---,0.39,VWS V14.01,2013-07-27 02:56:00,
2013-07-26 22:57:00,81.0,74.6,30.06,SSW,207,2.7,2.7,81,0.00,,---,0.39,VWS V14.01,2013-07-27 02:57:00,
2013-07-26 22:58:00,81.0,74.6,30.06,SSW,207,2.7,2.7,81,0.00,,---,0.39,VWS V14.01,2013-07-27 02:58:00,
2013-07-26 23:00:00,81.0,74.6,30.06,SSW,207,2.7,2.7,81,0.00,,---,0.39,VWS V14.01,2013-07-27 03:00:00,
2013-07-26 23:02:00,81.0,74.6,30.06,SSW,207,2.7,2.7,81,0.00,,---,0.39,VWS V14.01,2013-07-27 03:02:00,
2013-07-26 23:03:00,81.0,74.6,30.06,SSW,207,2.7,2.7,81,0.00,,---,0.39,VWS V14.01,2013-07-27 03:03:00,
2013-07-26 23:05:00,81.0,74.6,30.06,SSW,207,2.7,2.7,81,0.00,,---,0.39,VWS V14.01,2013-07-27 03:05:00,
2013-07-26 23:07:00,81.0,74.6,30.06,SSW,207,2.7,2.7,81,0.00,,---,0.39,VWS V14.01,2013-07-27 03:07:00,
2013-07-26 23:08:00,81.0,74.6,30.03,SSW,207,2.7,2.7,81,0.00,,---,0.39,VWS V14.01,2013-07-27 03:08:00,
2013-07-26 23:11:00,81.0,74.6,30.03,SSW,207,2.7,2.7,81,0.00,,---,0.39,VWS V14.01,2013-07-27 03:11:00,
2013-07-26 23:12:00,81.0,74.6,30.03,SSW,207,2.7,2.7,81,0.00,,---,0.39,VWS V14.01,2013-07-27 03:12:00,
2013-07-26 23:13:00,81.0,74.6,30.03,SSW,207,2.7,2.7,81,0.00,,---,0.39,VWS V14.01,2013-07-27 03:13:00,
2013-07-26 23:16:00,81.0,74.6,30.03,SSW,207,2.7,2.7,81,0.00,,---,0.39,VWS V14.01,2013-07-27 03:16:00,
2013-07-26 23:17:00,81.0,74.6,30.03,SSW,207,2.7,2.7,81,0.00,,---,0.39,VWS V14.01,2013-07-27 03:17:00,
2013-07-26 23:18:00,81.0,74.6,30.03,SSW,207,2.7,2.7,81,0.00,,---,0.39,VWS V14.01,2013-07-27 03:18:00,
2013-07-26 23:22:00,81.0,74.6,30.06,SSW,207,2.7,2.7,81,0.00,,---,0.39,VWS V14.01,2013-07-27 03:22:00,
2013-07-26 23:23:00,81.0,74.6,30.06,SSW,207,2.7,2.7,81,0.00,,---,0.39,VWS V14.01,2013-07-27 03:23:00,
2013-07-26 23:24:00,81.0,74.6,30.06,SSW,207,2.7,2.7,81,0.00,,---,0.39,VWS V14.01,2013-07-27 03:24:00,
2013-07-26 23:27:00,81.0,74.6,30.06,SSW,207,2.7,2.7,81,0.00,,---,0.39,VWS V14.01,2013-07-27 03:27:00,
2013-07-26 23:28:00,81.0,74.6,30.06,SSW,207,2.7,2.7,81,0.00,,---,0.39,VWS V14.01,2013-07-27 03:28:00,
2013-07-26 23:29:00,81.0,74.6,30.06,SSW,207,2.7,2.7,81,0.00,,---,0.39,VWS V14.01,2013-07-27 03:29:00,
2013-07-26 23:32:00,81.0,74.6,30.06,SSW,207,2.7,2.7,81,0.00,,---,0.39,VWS V14.01,2013-07-27 03:32:00,
2013-07-26 23:33:00,81.0,74.6,30.06,SSW,207,2.7,2.7,81,0.00,,---,0.39,VWS V14.01,2013-07-27 03:33:00,
2013-07-26 23:34:00,81.0,74.6,30.06,SSW,207,2.7,2.7,81,0.00,,---,0.39,VWS V14.01,2013-07-27 03:34:00,
2013-07-26 23:37:00,81.0,74.6,30.06,SSW,207,2.7,2.7,81,0.00,,---,0.00,VWS V14.01,2013-07-27 03:37:00,
2013-07-26 23:38:00,81.0,74.6,30.06,SSW,207,2.7,2.7,81,0.00,,---,0.39,VWS V14.01,2013-07-27 03:38:00,
2013-07-26 23:39:00,81.0,74.6,30.06,SSW,207,2.7,2.7,81,0.00,,---,0.39,VWS V14.01,2013-07-27 03:39:00,
2013-07-26 23:40:00,81.0,74.6,30.06,SSW,207,2.7,2.7,81,0.00,,---,0.39,VWS V14.01,2013-07-27 03:40:00,
2013-07-26 23:42:00,81.0,74.6,30.06,SSW,207,2.7,2.7,81,0.00,,---,0.39,VWS V14.01,2013-07-27 03:42:00,
2013-07-26 23:43:00,81.0,74.6,30.06,SSW,207,2.7,2.7,81,0.00,,---,0.39,VWS V14.01,2013-07-27 03:43:00,
2013-07-26 23:44:00,81.0,74.6,30.06,SSW,207,2.7,2.7,81,0.00,,---,0.00,VWS V14.01,2013-07-27 03:44:00,
2013-07-26 23:45:00,81.0,74.6,30.06,SSW,207,2.7,2.7,81,0.00,,---,0.39,VWS V14.01,2013-07-27 03:45:00,
2013-07-26 23:47:00,81.0,74.6,30.06,SSW,207,2.7,2.7,81,0.00,,---,0.39,VWS V14.01,2013-07-27 03:47:00,
2013-07-26 23:48:00,81.0,74.6,30.06,SSW,207,2.7,2.7,81,0.00,,---,0.39,VWS V14.01,2013-07-27 03:48:00,
2013-07-26 23:49:00,81.0,74.6,30.06,SSW,207,2.7,2.7,81,0.00,,---,0.39,VWS V14.01,2013-07-27 03:49:00,
2013-07-26 23:50:00,81.0,74.6,30.06,SSW,207,2.7,2.7,81,0.00,,---,0.39,VWS V14.01,2013-07-27 03:50:00,
2013-07-26 23:52:00,81.0,74.6,30.06,SSW,207,2.7,2.7,81,0.00,,---,0.39,VWS V14.01,2013-07-27 03:52:00,
2013-07-26 23:53:00,81.0,74.6,30.06,SSW,207,2.7,2.7,81,0.00,,---,0.39,VWS V14.01,2013-07-27 03:53:00,
2013-07-26 23:54:00,81.0,74.6,30.06,SSW,207,2.7,2.7,81,0.00,,---,0.39,VWS V14.01,2013-07-27 03:54:00,
2013-07-26 23:55:00,81.0,74.6,30.06,SSW,207,2.7,2.7,81,0.00,,---,0.39,VWS V14.01,2013-07-27 03:55:00,
2013-07-26 23:57:00,81.0,74.6,30.06,SSW,207,2.7,2.7,81,0.00,,---,0.39,VWS V14.01,2013-07-27 03:57:00,
2013-07-26 23:58:00,81.0,74.6,30.06,SSW,207,2.7,2.7,81,0.00,,---,0.39,VWS V14.01,2013-07-27 03:58:00,
2013-07-26 23:59:00,81.0,74.6,30.06,SSW,207,2.7,2.7,81,0.00,,---,0.39,VWS V14.01,2013-07-27 03:59:00,